This demonstration page uses our WeatherBlox Daily Observations layout. Learn more.

Left ArrowRight Arrow

Hourly Observations for August 2, 2015

Temp ( °F °C ) Dew Point ( °F °C ) Humidity (%) Winds ( mph kmh ) Pressure ( in mb ) Visibility ( mi km ) Precip ( " mm )
12:15 am 00:15 Clear 73 22.6 65 18.2 76 76 S 3 6 29.83 1010 10 16 N/A
12:35 am 00:35 Clear 72 22.4 64 18 76 76 Calm 29.85 1011 10 16 N/A
12:55 am 00:55 Clear 70 21 64 18 83 83 Calm 29.85 1011 10 16 N/A
1:15 am 01:15 Clear 68 19.8 64 17.5 87 87 WNW 5 7 29.88 1012 10 16 N/A
1:35 am 01:35 Clear 67 19.5 64 17.5 88 88 NNW 5 7 29.85 1011 10 16 N/A
1:55 am 01:55 Clear 67 19.3 64 17.7 91 91 Calm 29.88 1012 10 16 N/A
2:15 am 02:15 Clear 66 19.1 64 17.6 91 91 Calm 29.88 1012 10 16 N/A
2:35 am 02:35 Clear 66 18.7 63 17.3 92 92 NNW 3 6 29.88 1012 10 16 N/A
2:55 am 02:55 Clear 66 19 64 17.5 91 91 Calm 29.88 1012 10 16 N/A
3:15 am 03:15 Clear 66 19 64 17.5 91 91 N 3 6 29.88 1012 10 16 N/A
3:35 am 03:35 Clear 66 19 64 17.5 91 91 Calm 29.88 1012 10 16 N/A
3:55 am 03:55 Clear 66 18.9 63 17.3 90 90 Calm 29.88 1012 10 16 N/A
4:15 am 04:15 Clear 67 19.2 64 17.5 90 90 Calm 29.88 1012 10 16 N/A
4:35 am 04:35 Clear 66 18.8 63 17.3 91 91 Calm 29.83 1010 10 16 N/A
4:55 am 04:55 Clear 65 18.6 62 16.9 90 90 Calm 29.83 1010 10 16 N/A
5:15 am 05:15 Clear 64 18 62 16.6 92 92 Calm 29.85 1011 10 16 N/A
5:35 am 05:35 Clear 64 18 61 16.3 90 90 Calm 29.85 1011 10 16 N/A
5:55 am 05:55 Clear 64 17.6 61 16.1 91 91 Calm 29.85 1011 10 16 N/A
6:15 am 06:15 Clear 64 17.7 62 16.4 92 92 Calm 29.85 1011 10 16 N/A
6:35 am 06:35 Clear 64 17.6 61 16.2 92 92 Calm 29.85 1011 10 16 N/A
6:55 am 06:55 Sunny 64 17.5 61 16 91 91 SSE 5 7 29.85 1011 10 16 N/A
7:15 am 07:15 Sunny 64 17.8 62 16.5 92 92 Calm 29.88 1012 7 11 N/A
7:35 am 07:35 Sunny 66 18.7 63 17.3 92 92 Calm 29.88 1012 10 16 N/A
7:55 am 07:55 Sunny 68 20 64 17.8 87 87 Calm 29.85 1011 10 16 N/A
8:15 am 08:15 Sunny 70 21.3 65 18.2 83 83 Calm 29.85 1011 10 16 N/A
8:35 am 08:35 Sunny 73 22.5 66 18.9 80 80 SSW 3 6 29.83 1010 10 16 N/A
8:55 am 08:55 Sunny 75 24.1 67 19.6 76 76 SW 6 9 29.83 1010 10 16 N/A
9:15 am 09:15 Sunny 78 25.3 67 19.4 70 70 SSW 3 6 29.83 1010 10 16 N/A
9:35 am 09:35 Sunny 79 26.3 67 19.7 67 67 Calm 29.83 1010 10 16 N/A
9:55 am 09:55 Sunny 80 26.9 68 20.1 66 66 Calm 29.80 1009 10 16 N/A
10:15 am 10:15 Sunny 83 28.1 69 20.7 64 64 WSW 3 6 29.80 1009 10 16 N/A
10:35 am 10:35 Sunny 84 29 70 21.1 62 62 SSW 6 9 29.80 1009 10 16 N/A
10:55 am 10:55 Sunny 86 29.9 71 21.5 61 61 SSW 6 9 29.77 1008 10 16 N/A
11:15 am 11:15 Sunny 87 30.6 71 21.5 58 58 WSW 5 7 29.77 1008 10 16 N/A
11:35 am 11:35 Sunny 88 31.1 71 21.5 57 57 WSW 5 7 29.77 1008 10 16 N/A
11:55 am 11:55 Sunny 89 31.6 71 21.4 55 55 S 7 11 29.77 1008 10 16 N/A
12:15 pm 12:15 Sunny 90 32.3 70 21.2 52 52 SW 5 7 29.77 1008 10 16 N/A
12:35 pm 12:35 Sunny 92 33.2 70 21.2 49 49 SW 6 9 29.74 1007 10 16 N/A
12:55 pm 12:55 Sunny 92 33.6 69 20.3 46 46 SW 6 9 29.71 1006 10 16 N/A
1:15 pm 13:15 Sunny 93 34 67 19.3 42 42 S 8 13 29.71 1006 10 16 N/A
1:35 pm 13:35 Sunny 94 34.2 64 17.7 37 37 S 10 17 29.71 1006 10 16 N/A
1:55 pm 13:55 Sunny 94 34.5 64 17.6 37 37 S 12 19 29.71 1006 10 16 N/A
2:15 pm 14:15 Sunny 95 35 63 17.3 35 35 S 9 15 29.71 1006 10 16 N/A
2:35 pm 14:35 Sunny 95 35 60 15.7 31 31 SSE 8 13 29.71 1006 10 16 N/A
2:55 pm 14:55 Sunny 96 35.5 61 16 31 31 SSE 8 13 29.71 1006 10 16 N/A
3:15 pm 15:15 Sunny 96 35.8 58 14.5 28 28 SSE 8 13 29.68 1005 10 16 N/A
3:35 pm 15:35 Sunny 96 35.6 63 17.2 34 34 SSE 14 22 29.68 1005 10 16 N/A
3:55 pm 15:55 Sunny 93 33.8 63 17.3 37 37 SSE 12 19 29.68 1005 10 16 N/A
4:15 pm 16:15 Partly Cloudy 90 32.1 64 17.8 42 42 SSE 7 11 29.74 1007 10 16 N/A
4:35 pm 16:35 Partly Cloudy with Nearby Thunderstorms 87 30.7 60 15.4 40 40 SW 16 26 29.71 1006 10 16 N/A
4:55 pm 16:55 Partly Cloudy with Nearby Thunderstorms 88 31.3 48 8.8 25 25 W 14 22 29.71 1006 10 16 N/A
5:15 pm 17:15 Partly Cloudy with Thunderstorms 85 29.2 51 10.8 32 32 SW 17 28 29.74 1007 10 16 N/A
5:35 pm 17:35 Sunny with Thunderstorms 80 26.5 58 14.2 47 47 SW 15 24 29.80 1009 10 16 N/A
5:55 pm 17:55 Sunny 82 27.8 56 13.1 40 40 SSW 10 17 29.80 1009 10 16 N/A
6:15 pm 18:15 Sunny 84 28.9 58 14.2 41 41 ENE 13 20 29.83 1010 10 16 N/A
6:35 pm 18:35 Sunny 82 28 56 13.2 40 40 E 16 26 29.80 1009 10 16 N/A
6:55 pm 18:55 Sunny 80 26.6 55 13 43 43 ESE 7 11 29.80 1009 10 16 N/A
7:15 pm 19:15 Sunny 80 26.7 56 13.4 44 44 ESE 9 15 29.77 1008 10 16 N/A
7:35 pm 19:35 Sunny 80 26.6 56 13.5 44 44 SE 5 7 29.77 1008 10 16 N/A
7:55 pm 19:55 Sunny 80 26.5 56 13.3 44 44 SSE 7 11 29.77 1008 10 16 N/A
8:15 pm 20:15 Sunny 79 26.1 55 12.8 44 44 SE 8 13 29.77 1008 10 16 N/A
8:35 pm 20:35 Sunny 78 25.3 57 13.8 49 49 S 6 9 29.80 1009 10 16 N/A
8:55 pm 20:55 Clear 74 23.2 58 14.6 59 59 SSE 7 11 29.80 1009 10 16 N/A
9:15 pm 21:15 Clear 73 22.7 58 14.4 60 60 S 3 6 29.80 1009 10 16 N/A
9:35 pm 21:35 Clear 71 21.5 59 15 67 67 SSE 5 7 29.83 1010 7 11 N/A
9:55 pm 21:55 Clear 70 21.2 57 14 64 64 S 5 7 29.83 1010 7 11 N/A
10:15 pm 22:15 Clear 70 21.1 58 14.3 65 65 Calm 29.83 1010 10 16 N/A
10:35 pm 22:35 Clear 66 19.1 59 15.2 78 78 Calm 29.88 1012 10 16 N/A
10:55 pm 22:55 Clear 67 19.6 58 14.5 73 73 WNW 3 6 29.85 1011 10 16 N/A
11:15 pm 23:15 Clear 65 18.5 59 14.9 80 80 NW 5 7 29.88 1012 10 16 N/A
11:35 pm 23:35 Clear 64 17.5 59 15 85 85 NNW 6 9 29.88 1012 10 16 N/A
11:55 pm 23:55 Clear 64 17.5 59 15.1 86 86 NNW 8 13 29.88 1012 10 16 N/A

Powered by AerisWeather